Regional Weather Roundup
Issued by NWS Sioux Falls, SD

Home | Current Version | Previous Version | Text Only | Print | Product List | Glossary On
Versions: 1 2 3 4 5 6 7 8 9 10 11 12 13 14 15 16 17 18 19 20 21 22 23 24 25 26 27 28 29 30 31 32 33 34 35 36 37 38 39 40 41 42 43 44 45 46 47 48 49 50
000
ASUS43 KFSD 250510
RWRFSD

WEATHER ROUNDUP FOR SE SOUTH DAKOTA/SW MINNESOTA/NW IOWA
NATIONAL WEATHER SERVICE SIOUX FALLS SD
1100 PM CST SAT FEB 24 2018

NOTE: "FAIR" INDICATES FEW OR NO CLOUDS BELOW 12,000 FEET WITH NO
SIGNIFICANT WEATHER AND OR OBSTRUCTIONS TO VISIBILITY.


SDZ038>040-050-052>070-250600-
SOUTHEAST SOUTH DAKOTA

CITY           SKY/WX    TMP DP  RH WIND       PRES   REMARKS
BROOKINGS      CLOUDY    13  10  88 W18       29.62R WCI  -4
CHAMBERLAIN    CLEAR     18  11  74 SW14      29.73R WCI   4
HURON          CLEAR      8   5  87 W7        29.68R WCI  -3
MADISON        CLOUDY    10  10 100 W15       29.64R WCI  -6
MITCHELL       CLEAR     11   7  84 W14       29.73R WCI  -5
SIOUX FALLS    CLOUDY    12   8  84 W16G23    29.68S WCI  -5
WINNER         FAIR      21  10  62 W14       29.73S WCI   8
YANKTON        CLEAR     14  10  84 W12       29.74S WCI   0
$$

MNZ071-072-080-081-089-090-097-098-250600-
SOUTHWEST MINNESOTA

CITY           SKY/WX    TMP DP  RH WIND       PRES   REMARKS
FAIRMONT       FLURRIES  21  17  84 W23G29    29.59S WCI   5
JACKSON        CLOUDY    18  16  93 W29G35    29.59S FOG     WCI  -2
LUVERNE        CLOUDY    14  10  85 W18       29.66S WCI  -3
MARSHALL       CLOUDY    17  13  84 W21       29.57F WCI   0
MONTEVIDEO     CLOUDY    12  10  92 NW8       29.57S WCI   1
PIPESTONE      CLOUDY    14  10  85 W17G25    29.61R WCI  -3
REDWOOD FALLS  CLOUDY    19  16  88 W16       29.55F WCI   4
TRACY          PTCLDY    17  14  87 W13G18    29.56F WCI   4
WORTHINGTON    LGT SNOW  15  12  88 W28G36    29.61R FOG     WCI  -5
$$

IAZ001>003-012>014-020>022-031-032-NEZ013-014-SDZ071-250600-
NORTHWEST IOWA

CITY           SKY/WX    TMP DP  RH WIND       PRES   REMARKS
CHEROKEE       CLOUDY    21  18  89 W18G30    29.71R WCI   6
DENISON        CLOUDY    28  25  86 W16G28    29.74R WCI  17
ESTHERVILLE    CLOUDY    20  16  84 W25G35    29.61R FOG     WCI   2
LE MARS        MOCLDY    16  12  86 W13G20    29.74R WCI   2
ORANGE CITY    LGT SNOW  18  18 100 W24       29.69R WCI   0
SHELDON        MOCLDY    14  14 100 W22G30    29.66R FOG     WCI  -4
SIOUX CITY     PTCLDY    20  14  77 NW14      29.76R WCI   7
SPENCER        CLOUDY    19  14  81 W21G31    29.65R WCI   3
STORM LAKE     MIX PCPN  23  21  93 W29G37    29.66R WCI   6
$$

ABBREVIATIONS USED IN REMARKS
   TC - TEMPERATURE IN CELSIUS
  WCI - WIND CHILL INDEX
   HX - HEAT INDEX
  VSB - VISIBILITY





USA.gov is the U.S. government's official web portal to all federal, state and local government web resources and services.